This demonstration page uses our WeatherBlox Daily Observations layout. Learn more.

Hourly Observations for August 6, 2018

Temp ( °F °C ) Dew Point ( °F °C ) Humidity (%) Winds ( mph kmh ) Pressure ( in mb ) Visibility ( mi km ) Precip ( " mm )
12:15 am 00:15 Partly Cloudy 71 21.9 65 18.2 80 80 Calm 29.94 1014 10 16.09344 0 0
12:35 am 00:35 Mostly Cloudy 72 22 65 18.5 81 81 SW 6 9 29.91 1013 10 16.09344 0 0
12:55 am 00:55 Mostly Cloudy 71 21.8 65 18.5 82 82 W 7 11 29.94 1014 10 16.09344 0 0
1:15 am 01:15 Cloudy with Light Rain 71 21.4 67 19.6 90 90 NW 12 19 30 1016 10 16.09344 0 0
1:35 am 01:35 Cloudy with Thunderstorms 70 20.9 69 20.6 98 98 NW 7 11 30.03 1017 5 8.04672 0.05 1.27
1:55 am 01:55 Cloudy 69 20.8 69 20.7 99 99 N 8 13 30 1016 5 8.04672 0.07 1.778
2:15 am 02:15 Cloudy with Light Thunderstorms 69 20.8 69 20.8 100 100 NE 8 13 30 1016 5 8.04672 0.02 0.508
2:35 am 02:35 Cloudy with Mist and Fog 69 20.7 69 20.7 100 100 E 9 15 29.97 1015 5 8.04672 0.02 0.508
2:55 am 02:55 Cloudy with Nearby Thunderstorms 69 20.8 69 20.8 100 100 ESE 6 9 29.97 1015 7 11.265408 0.02 0.508
3:15 am 03:15 Cloudy with Light Rain 69 20.6 69 20.6 100 100 SE 15 24 29.94 1014 5 8.04672 0.01 0.254
3:35 am 03:35 Partly Cloudy 69 20.6 69 20.6 100 100 SE 14 22 29.94 1014 10 16.09344 0.01 0.254
3:55 am 03:55 Partly Cloudy 69 20.5 68 20 97 97 SE 10 17 29.94 1014 10 16.09344 0.01 0.254
4:15 am 04:15 Clear 68 20.1 67 19.3 95 95 ESE 9 15 29.91 1013 10 16.09344 0 0
4:35 am 04:35 Clear 68 20 66 19 94 94 SE 9 15 29.91 1013 10 16.09344 0 0
4:55 am 04:55 Clear 68 19.8 65 18.3 91 91 NNE 3 6 29.94 1014 10 16.09344 0 0
5:15 am 05:15 Clear 67 19.2 65 18.3 95 95 Calm 29.97 1015 10 16.09344 0 0
5:35 am 05:35 Clear 65 18.5 65 18.1 98 98 Calm 29.97 1015 10 16.09344 0 0
5:55 am 05:55 Clear 65 18.5 64 18 97 97 NE 5 7 29.94 1014 10 16.09344 0 0
6:15 am 06:15 Clear 64 18 64 17.9 99 99 SE 6 9 29.94 1014 10 16.09344 0 0
6:35 am 06:35 Clear 65 18.1 64 17.9 99 99 Calm 29.97 1015 10 16.09344 0 0
6:55 am 06:55 Partly Cloudy with Light Rain 65 18.6 65 18.2 98 98 NW 3 6 29.97 1015 10 16.09344 0 0
7:15 am 07:15 Sunny 65 18.4 65 18.4 100 100 NE 3 6 29.97 1015 10 16.09344 0 0
7:35 am 07:35 Sunny 65 18.6 65 18.6 100 100 ENE 5 7 29.97 1015 10 16.09344 0 0
7:55 am 07:55 Sunny 66 18.7 66 18.7 100 100 E 3 6 29.94 1014 10 16.09344 0 0
8:15 am 08:15 Sunny 67 19.2 67 19.2 100 100 N 5 7 29.97 1015 10 16.09344 0 0
8:35 am 08:35 Partly Cloudy with Light Rain 67 19.3 67 19.2 99 99 NNE 6 9 29.97 1015 10 16.09344 0 0
8:55 am 08:55 Partly Cloudy 66 19 66 19 100 100 NE 7 11 29.97 1015 10 16.09344 0 0
9:15 am 09:15 Sunny 69 20.3 68 19.8 97 97 N 9 15 29.97 1015 10 16.09344 0 0
9:35 am 09:35 Sunny 71 21.5 68 19.8 90 90 NNE 8 13 30 1016 10 16.09344 0.01 0.254
9:55 am 09:55 Sunny 72 22.1 68 19.8 87 87 NNE 8 13 30 1016 10 16.09344 0.01 0.254
10:15 am 10:15 Sunny 73 22.9 69 20.4 86 86 NNE 10 17 30 1016 10 16.09344 0 0
10:35 am 10:35 Sunny 73 22.5 69 20.4 88 88 NE 13 20 30 1016 10 16.09344 0 0
10:55 am 10:55 Sunny 73 22.7 69 20.3 86 86 NE 13 20 30 1016 10 16.09344 0 0
11:15 am 11:15 Partly Cloudy 74 23.6 70 21.3 87 87 NE 10 17 30 1016 10 16.09344 0 0
11:35 am 11:35 Mostly Cloudy 74 23.2 69 20.6 85 85 ENE 12 19 30 1016 10 16.09344 0 0
11:55 am 11:55 Partly Cloudy 74 23.6 69 20.3 82 82 NE 9 15 30 1016 10 16.09344 0 0
12:15 pm 12:15 Partly Cloudy 76 24.2 70 20.9 82 82 NE 9 15 29.97 1015 10 16.09344 0 0
12:35 pm 12:35 Partly Cloudy 76 24.6 69 20.5 78 78 ENE 10 17 29.94 1014 10 16.09344 0 0
12:55 pm 12:55 Partly Cloudy 77 25.1 69 20.3 75 75 ENE 9 15 29.97 1015 10 16.09344 0 0
1:15 pm 13:15 Partly Cloudy 78 25.5 69 20.4 73 73 ENE 9 15 29.94 1014 10 16.09344 0 0
1:35 pm 13:35 Partly Cloudy 78 25.5 69 20.3 73 73 ENE 8 13 29.94 1014 10 16.09344 0 0
1:55 pm 13:55 Partly Cloudy with Nearby Thunderstorms 78 25.8 69 20.4 72 72 ENE 7 11 29.94 1014 10 16.09344 0 0
2:15 pm 14:15 Partly Cloudy 79 26.1 68 20 69 69 E 6 9 29.94 1014 10 16.09344 0 0
2:35 pm 14:35 Partly Cloudy 80 26.4 69 20.3 69 69 ENE 7 11 29.94 1014 10 16.09344 0 0
2:55 pm 14:55 Partly Cloudy with Light Thunderstorms 77 25 69 20.7 77 77 ESE 7 11 29.94 1014 10 16.09344 0 0
3:15 pm 15:15 Cloudy with Light Thunderstorms 76 24.3 71 21.8 86 86 ENE 3 6 29.94 1014 10 16.09344 0 0
3:35 pm 15:35 Mostly Cloudy with Thunderstorms 79 26.1 71 21.5 76 76 E 8 13 29.94 1014 10 16.09344 0 0
3:55 pm 15:55 Mostly Cloudy with Thunderstorms 78 25.4 69 20.6 75 75 E 7 11 29.94 1014 10 16.09344 0 0
4:15 pm 16:15 Mostly Cloudy with Nearby Thunderstorms 78 25.8 70 21 75 75 ENE 8 13 29.94 1014 10 16.09344 0 0
4:35 pm 16:35 Partly Cloudy 80 26.5 70 21.2 73 73 E 8 13 29.94 1014 10 16.09344 0 0
4:55 pm 16:55 Mostly Cloudy with Nearby Thunderstorms 80 26.5 69 20.8 71 71 ENE 9 15 29.94 1014 10 16.09344 0 0
5:15 pm 17:15 Mostly Cloudy 80 26.5 69 20.8 71 71 NE 8 13 29.94 1014 10 16.09344 0 0
5:35 pm 17:35 Partly Cloudy 78 25.7 69 20.3 72 72 ENE 7 11 29.91 1013 10 16.09344 0 0
5:55 pm 17:55 Partly Cloudy 78 25.8 70 21.2 76 76 NE 5 7 29.94 1014 10 16.09344 0 0
6:15 pm 18:15 Cloudy 78 25.7 69 20.8 74 74 NE 5 7 29.94 1014 10 16.09344 0 0
6:35 pm 18:35 Cloudy 78 25.6 69 20.8 75 75 NE 6 9 29.94 1014 10 16.09344 0 0
6:55 pm 18:55 Cloudy 78 25.6 70 21 76 76 ENE 5 7 29.91 1013 10 16.09344 0 0
7:15 pm 19:15 Cloudy 77 25.1 71 21.4 80 80 ENE 3 6 29.91 1013 10 16.09344 0 0
7:35 pm 19:35 Mostly Cloudy 76 24.7 71 21.7 83 83 NNE 5 7 29.94 1014 10 16.09344 0 0
7:55 pm 19:55 Cloudy 76 24.5 71 21.6 84 84 NE 5 7 29.94 1014 10 16.09344 0 0
8:15 pm 20:15 Cloudy 75 24 71 21.8 88 88 NNE 3 6 29.94 1014 10 16.09344 0 0
8:35 pm 20:35 Cloudy with Light Rain 74 23.6 72 22.1 91 91 N 10 17 29.97 1015 10 16.09344 0 0
8:55 pm 20:55 Cloudy with Light Rain 73 22.6 71 21.5 94 94 NNE 8 13 29.97 1015 10 16.09344 0 0
9:15 pm 21:15 Cloudy 72 22.2 70 21.3 95 95 NNE 8 13 29.97 1015 10 16.09344 0 0
9:35 pm 21:35 Cloudy with Nearby Thunderstorms 71 21.5 69 20.7 95 95 N 7 11 29.97 1015 10 16.09344 0 0
9:55 pm 21:55 Cloudy 70 21.2 69 20.5 96 96 NNE 9 15 30 1016 10 16.09344 0 0
10:15 pm 22:15 Cloudy 70 21.1 69 20.3 95 95 ENE 3 6 30 1016 10 16.09344 0 0
10:35 pm 22:35 Mostly Cloudy 70 21 69 20.3 96 96 Calm 30 1016 10 16.09344 0 0
10:55 pm 22:55 Partly Cloudy 69 20.5 68 20.2 98 98 ESE 5 7 29.97 1015 10 16.09344 0 0
11:15 pm 23:15 Clear 68 20.2 68 20.2 100 100 SE 3 6 29.97 1015 7 11.265408 0 0
11:35 pm 23:35 Clear 68 20 68 19.9 99 99 N 5 7 30.03 1017 7 11.265408 0 0
11:55 pm 23:55 Partly Cloudy 67 19.5 67 19.5 100 100 NNE 3 6 30.03 1017 7 11.265408 0 0

Powered by AerisWeather